Starlink 4736

decayed
NORAD ID: 53791 Int'l Des: 2022-111 Owner: SPXS Country: US Constellation: starlink
LEOCIRCULAR
Group

About Starlink 4736

Description loading...

Altitude History

Altitude vs Time

uPlot chart will show altitude changes over time

Two-Line Element Set

1 53791U 22111U 22318.44183289 .17164363 12508-4 51043-3 0 9994
2 53791 53.1753 299.3391 0000638 320.1800 40.9607 16.45434721 10260
Epoch: Nov 14, 2022 • Age: 26953 hours

Current Status

Position data unavailable
Launch Date Sep 11, 2022
Age 3.2 years
Decay Date Nov 14, 2022
Type internet

Technical Details

Classification Payload
Mass 305.00 kg
Dry Mass 290.00 kg
Total Mass 305.00 kg
Length 0.20 m
Diameter 2.80 m
Span 9.00 m
Shape Box + pan
Manufacturer SPXS
Bus Type Starlink
Phase Status Reentered
Owner/State SPXS/US

Large Constellations

Loading constellations...